H1 CPF 2 NER 2024 1 14 9 014 01 glonass131 H2 1301901 9131 39155 2024 1 14 0 0 0 2024 1 17 23 45 0 900 1 1 0 0 0 1 H9 10 0 60323 0.00000 0 4134230.012 10205968.743 23057821.933 10 0 60323 900.00000 0 1349616.183 10761942.625 23130326.033 10 0 60323 1800.00000 0 -1369098.727 11517604.253 22755697.721 10 0 60323 2700.00000 0 -3956330.699 12448447.534 21940870.098 10 0 60323 3600.00000 0 -6352337.142 13519045.674 20701270.498 10 0 60323 4500.00000 0 -8505454.484 14684492.433 19060552.348 10 0 60323 5400.00000 0 -10374005.507 15892262.024 17050169.564 10 0 60323 6300.00000 0 -11927797.060 17084412.670 14708798.938 10 0 60323 7200.00000 0 -13149144.866 18200043.815 12081618.926 10 0 60323 8100.00000 0 -14033381.142 19177905.336 9219456.261 10 0 60323 9000.00000 0 -14588821.993 19959049.577 6177814.857 10 0 60323 9900.00000 0 -14836193.990 20489413.921 3015804.515 10 0 60323 10800.00000 0 -14807542.473 20722223.343 -205010.336 10 0 60323 11700.00000 0 -14544666.466 20620108.973 -3421819.212 10 0 60323 12600.00000 0 -14097145.948 20156850.010 -6571806.762 10 0 60323 13500.00000 0 -13520045.413 19318661.875 -9593400.607 10 0 60323 14400.00000 0 -12871392.310 18104972.811 -12427499.161 10 0 60323 15300.00000 0 -12209539.248 16528653.145 -15018652.822 10 0 60323 16200.00000 0 -11590524.354 14615685.291 -17316172.864 10 0 60323 17100.00000 0 -11065544.417 12404286.989 -19275143.925 10 0 60323 18000.00000 0 -10678650.590 9943524.269 -20857318.270 10 0 60323 18900.00000 0 -10464766.475 7291472.841 -22031872.929 10 0 60323 19800.00000 0 -10448114.099 4513006.168 -22776014.122 10 0 60323 20700.00000 0 -10641115.171 1677304.463 -23075417.037 10 0 60323 21600.00000 0 -11043813.970 -1144809.509 -22924492.954 10 0 60323 22500.00000 0 -11643845.351 -3883595.070 -22326479.557 10 0 60323 23400.00000 0 -12416947.642 -6473063.935 -21293354.250 10 0 60323 24300.00000 0 -13327996.687 -8853484.548 -19845574.007 10 0 60323 25200.00000 0 -14332515.162 -10973616.635 -18011648.826 10 0 60323 26100.00000 0 -15378591.190 -12792584.227 -15827559.166 10 0 60323 27000.00000 0 -16409123.384 -14281311.434 -13336030.624 10 0 60323 27900.00000 0 -17364296.183 -15423464.101 -10585681.760 10 0 60323 28800.00000 0 -18184180.195 -16215861.584 -7630063.087 10 0 60323 29700.00000 0 -18811347.836 -16668345.252 -4526607.043 10 0 60323 30600.00000 0 -19193394.535 -16803112.951 -1335510.042 10 0 60323 31500.00000 0 -19285260.474 -16653550.711 1881431.460 10 0 60323 32400.00000 0 -19051256.738 -16262613.452 5062008.503 10 0 60323 33300.00000 0 -18466712.469 -15680824.522 8144788.506 10 0 60323 34200.00000 0 -17519175.783 -14963979.184 11070283.641 10 0 60323 35100.00000 0 -16209119.574 -14170648.388 13782077.667 10 0 60323 36000.00000 0 -14550123.664 -13359586.801 16227891.317 10 0 60323 36900.00000 0 -12568526.226 -12587152.486 18360567.817 10 0 60323 37800.00000 0 -10302558.516 -11904844.451 20138961.652 10 0 60323 38700.00000 0 -7800997.753 -11357059.270 21528715.509 10 0 60323 39600.00000 0 -5121392.144 -10979158.846 22502912.183 10 0 60323 40500.00000 0 -2327928.996 -10795928.782 23042590.176 10 0 60323 41400.00000 0 510968.855 -10820491.128 23137113.793 10 0 60323 42300.00000 0 3325221.956 -11053717.122 22784390.621 10 0 60323 43200.00000 0 6045744.925 -11484165.520 21990931.520 10 0 60323 44100.00000 0 8607061.884 -12088550.898 20771750.523 10 0 60323 45000.00000 0 10949780.339 -12832724.816 19150104.580 10 0 60323 45900.00000 0 13022822.144 -13673131.572 17157075.618 10 0 60323 46800.00000 0 14785319.206 -14558680.366 14831000.264 10 0 60323 47700.00000 0 16208094.460 -15432957.816 12216755.460 10 0 60323 48600.00000 0 17274665.038 -16236689.726 9364911.266 10 0 60323 49500.00000 0 17981723.866 -16910349.470 6330765.189 10 0 60323 50400.00000 0 18339077.447 -17396802.975 3173275.376 10 0 60323 51300.00000 0 18369040.476 -17643877.513 -46087.187 10 0 60323 52200.00000 0 18105311.201 -17606743.643 -3264544.953 10 0 60323 53100.00000 0 17591374.067 -17250006.649 -6419253.954 10 0 60323 54000.00000 0 16878496.990 -16549415.603 -9448551.892 10 0 60323 54900.00000 0 16023408.739 -15493114.221 -12293187.550 10 0 60323 55800.00000 0 15085756.302 -14082377.273 -14897504.897 10 0 60323 56700.00000 0 14125452.068 -12331798.686 -17210556.130 10 0 60323 57600.00000 0 13200025.737 -10268921.305 -19187119.480 10 0 60323 58500.00000 0 12362095.648 -7933322.862 -20788599.817 10 0 60323 59400.00000 0 11657068.887 -5375196.326 -21983792.989 10 0 60323 60300.00000 0 11121169.216 -2653484.859 -22749498.144 10 0 60323 61200.00000 0 10779877.191 166349.242 -23070965.902 10 0 60323 62100.00000 0 10646848.510 3014826.715 -22942174.157 10 0 60323 63000.00000 0 10723355.466 5821118.505 -22365927.177 10 0 60323 63900.00000 0 10998273.543 8515765.294 -21353777.599 10 0 60323 64800.00000 0 11448611.487 11033335.211 -19925774.665 10 0 60323 65700.00000 0 12040559.947 13314908.921 -18110045.599 10 0 60323 66600.00000 0 12731011.719 15310289.316 -15942220.354 10 0 60323 67500.00000 0 13469486.956 16979845.379 -13464712.869 10 0 60323 68400.00000 0 14200379.949 18295915.812 -10725874.597 10 0 60323 69300.00000 0 14865431.165 19243716.932 -7779038.295 10 0 60323 70200.00000 0 15406319.394 19821720.448 -4681471.798 10 0 60323 71100.00000 0 15767264.576 20041488.944 -1493262.822 10 0 60323 72000.00000 0 15897532.189 19926979.444 1723843.254 10 0 60323 72900.00000 0 15753734.824 19513347.203 4907630.277 10 0 60323 73800.00000 0 15301835.665 18845302.240 7996600.631 10 0 60323 74700.00000 0 14518771.347 17975088.946 10931145.050 10 0 60323 75600.00000 0 13393627.634 16960173.951 13654671.891 10 0 60323 76500.00000 0 11928319.916 15860738.844 16114675.950 10 0 60323 77400.00000 0 10137750.634 14737081.499 18263728.232 10 0 60323 78300.00000 0 8049436.940 13647033.110 20060369.753 10 0 60323 79200.00000 0 5702623.315 12643496.973 21469894.273 10 0 60323 80100.00000 0 3146914.159 11772209.728 22465006.564 10 0 60323 81000.00000 0 440480.687 11069816.759 23026344.901 10 0 60323 81900.00000 0 -2352086.544 10562340.832 23142858.469 10 0 60323 82800.00000 0 -5162193.886 10264107.295 22812032.457 10 0 60323 83700.00000 0 -7919832.910 10177171.004 22039955.852 10 0 60323 84600.00000 0 -10556236.680 10291269.970 20841229.254 10 0 60323 85500.00000 0 -13006496.398 10584309.488 19238712.459 10 0 60324 0.00000 0 -15212031.460 11023358.781 17263114.404 10 0 60324 900.00000 0 -17122812.235 11566121.217 14952429.522 10 0 60324 1800.00000 0 -18699240.009 12162818.250 12351231.313 10 0 60324 2700.00000 0 -19913608.604 12758410.754 9509830.769 10 0 60324 3600.00000 0 -20751081.835 13295064.974 6483316.356 10 0 60324 4500.00000 0 -21210144.943 13714759.733 3330491.786 10 0 60324 5400.00000 0 -21302508.564 13961924.096 112731.733 10 0 60324 6300.00000 0 -21052467.286 13985992.324 -3107222.117 10 0 60324 7200.00000 0 -20495738.267 13743765.412 -6266500.116 10 0 60324 8100.00000 0 -19677828.238 13201476.056 -9303352.980 10 0 60324 9000.00000 0 -18651997.960 12336466.062 -12158382.742 10 0 60324 9900.00000 0 -17476911.214 11138401.697 -14775729.702 10 0 60324 10800.00000 0 -16214069.500 9609972.418 -17104189.565 10 0 60324 11700.00000 0 -14925143.161 7767040.895 -19098236.483 10 0 60324 12600.00000 0 -13669314.310 5638236.312 -20718929.947 10 0 60324 13500.00000 0 -12500746.181 3264007.207 -21934686.287 10 0 60324 14400.00000 0 -11466287.771 695173.723 -22721898.859 10 0 60324 15300.00000 0 -10603511.931 -2008959.235 -23065394.604 10 0 60324 16200.00000 0 -9939170.070 -4782847.574 -22958718.525 10 0 60324 17100.00000 0 -9488128.122 -7557216.947 -22404241.581 10 0 60324 18000.00000 0 -9252827.191 -10261728.734 -21413091.362 10 0 60324 18900.00000 0 -9223289.405 -12827690.711 -20004908.738 10 0 60324 19800.00000 0 -9377665.976 -15190698.841 -18207437.195 10 0 60324 20700.00000 0 -9683301.342 -17293100.204 -16055954.923 10 0 60324 21600.00000 0 -10098265.449 -19086175.416 -13592562.702 10 0 60324 22500.00000 0 -10573286.807 -20531951.355 -10865343.204 10 0 60324 23400.00000 0 -11054002.510 -21604571.069 -7927409.611 10 0 60324 24300.00000 0 -11483428.702 -22291166.749 -4835863.228 10 0 60324 25200.00000 0 -11804546.462 -22592202.655 -1650681.053 10 0 60324 26100.00000 0 -11962894.002 -22521277.018 1566444.729 10 0 60324 27000.00000 0 -11909056.536 -22104394.270 4753293.016 10 0 60324 27900.00000 0 -11600950.163 -21378740.723 7848303.535 10 0 60324 28800.00000 0 -11005805.178 -20391016.730 10791748.102 10 0 60324 29700.00000 0 -10101767.037 -19195396.100 13526862.326 10 0 60324 30600.00000 0 -8879049.180 -17851198.184 16000917.757 10 0 60324 31500.00000 0 -7340590.305 -16420369.114 18166215.850 10 0 60324 32400.00000 0 -5502188.907 -14964876.057 19980986.761 10 0 60324 33300.00000 0 -3392108.857 -13544121.193 21410177.740 10 0 60324 34200.00000 0 -1050171.079 -12212481.156 22426117.701 10 0 60324 35100.00000 0 1473633.127 -11017072.377 23009046.567 10 0 60324 36000.00000 0 4120952.522 -9995833.613 23147499.918 10 0 60324 36900.00000 0 6827238.314 -9176004.415 22838541.690 10 0 60324 37800.00000 0 9524172.394 -8573062.497 22087839.768 10 0 60324 38700.00000 0 12142264.136 -8190164.659 20909581.683 10 0 60324 39600.00000 0 14613511.011 -8018115.760 19326230.054 10 0 60324 40500.00000 0 16874014.748 -8035868.806 17368120.008 10 0 60324 41400.00000 0 18866445.688 -8211537.401 15072903.624 10 0 60324 42300.00000 0 20542252.953 -8503880.397 12484849.327 10 0 60324 43200.00000 0 21863527.610 -8864198.461 9654007.244 10 0 60324 44100.00000 0 22804439.413 -9238564.283 6635254.534 10 0 60324 45000.00000 0 23352184.773 -9570293.174 3487237.765 10 0 60324 45900.00000 0 23507403.742 -9802549.534 271232.199 10 0 60324 46800.00000 0 23284046.067 -9880977.783 -2950059.717 10 0 60324 47700.00000 0 22708689.874 -9756244.269 -6113746.205 10 0 60324 48600.00000 0 21819340.372 -9386379.579 -9157994.568 10 0 60324 49500.00000 0 20663758.652 -8738818.635 -12023263.578 10 0 60324 50400.00000 0 19297391.569 -7792048.617 -14653493.169 10 0 60324 51300.00000 0 17780991.273 -6536791.549 -16997225.586 10 0 60324 52200.00000 0 16178026.840 -4976668.600 -19008633.644 10 0 60324 53100.00000 0 14551999.508 -3128315.867 -20648433.838 10 0 60324 54000.00000 0 12963777.214 -1020945.330 -21884664.991 10 0 60324 54900.00000 0 11469062.871 1304630.995 -22693316.281 10 0 60324 55800.00000 0 10116104.671 3797472.398 -23058792.143 10 0 60324 56700.00000 0 8943745.571 6398413.626 -22974205.431 10 0 60324 57600.00000 0 7979893.898 9042320.725 -22441494.089 10 0 60324 58500.00000 0 7240478.261 11660602.718 -21471360.523 10 0 60324 59400.00000 0 6728928.742 14183872.801 -20083036.678 10 0 60324 60300.00000 0 6436203.391 16544647.032 -18303881.351 10 0 60324 61200.00000 0 6341355.714 18679967.485 -16168819.660 10 0 60324 62100.00000 0 6412615.811 20533840.853 -13719637.567 10 0 60324 63000.00000 0 6608936.318 22059391.874 -11004146.972 10 0 60324 63900.00000 0 6881935.059 23220643.607 -8075239.204 10 0 60324 64800.00000 0 7178150.181 23993852.748 -4989846.483 10 0 60324 65700.00000 0 7441511.101 24368347.167 -1807832.321 10 0 60324 66600.00000 0 7615920.313 24346833.712 1409167.202 10 0 60324 67500.00000 0 7647837.272 23945166.546 4598929.031 10 0 60324 68400.00000 0 7488756.196 23191588.351 7699833.225 10 0 60324 69300.00000 0 7097474.736 22125478.120 10652035.604 10 0 60324 70200.00000 0 6442059.596 20795659.324 13398601.829 10 0 60324 71100.00000 0 5501428.003 19258339.350 15886582.849 10 0 60324 72000.00000 0 4266479.874 17574765.884 18068013.026 10 0 60324 72900.00000 0 2740733.921 15808696.800 19900813.898 10 0 60324 73800.00000 0 940440.979 14023787.099 21349588.236 10 0 60324 74700.00000 0 -1105831.095 12280999.563 22386290.892 10 0 60324 75600.00000 0 -3358125.550 10636144.456 22990764.917 10 0 60324 76500.00000 0 -5766501.909 9137648.505 23151133.444 10 0 60324 77400.00000 0 -8272862.977 7824644.223 22864039.903 10 0 60324 78300.00000 0 -10813131.398 6725458.002 22134731.367 10 0 60324 79200.00000 0 -13319689.002 5856559.586 20976982.097 10 0 60324 80100.00000 0 -15723980.867 5222017.194 19412856.793 10 0 60324 81000.00000 0 -17959178.606 4813482.219 17472315.702 10 0 60324 81900.00000 0 -19962793.900 4610705.891 15192666.430 10 0 60324 82800.00000 0 -21679134.153 4582568.297 12617870.286 10 0 60324 83700.00000 0 -23061497.585 4688578.573 9797713.984 10 0 60324 84600.00000 0 -24074014.730 4880784.906 6786860.570 10 0 60324 85500.00000 0 -24693057.149 5106014.927 3643796.502 10 0 60325 0.00000 0 -24908151.719 5308352.143 429694.867 10 0 60325 900.00000 0 -24722359.371 5431743.135 -2792784.780 10 0 60325 1800.00000 0 -24152099.605 5422623.201 -5960731.302 10 0 60325 2700.00000 0 -23226426.533 5232447.111 -9012231.608 10 0 60325 3600.00000 0 -21985785.345 4820014.272 -11887604.144 10 0 60325 4500.00000 0 -20480301.482 4153486.447 -14530591.285 10 0 60325 5400.00000 0 -18767675.226 3212009.039 -16889484.433 10 0 60325 6300.00000 0 -16910771.880 1986864.172 -18918157.379 10 0 60325 7200.00000 0 -14975011.068 482104.241 -20576985.595 10 0 60325 8100.00000 0 -13025667.408 -1285362.646 -21833631.917 10 0 60325 9000.00000 0 -11125198.318 -3286239.881 -22663682.383 10 0 60325 9900.00000 0 -9330713.197 -5479842.665 -23051119.468 10 0 60325 10800.00000 0 -7691691.439 -7815588.754 -22988623.918 10 0 60325 11700.00000 0 -6248045.413 -10234915.953 -22477700.241 10 0 60325 12600.00000 0 -5028609.010 -12673544.502 -21528624.816 10 0 60325 13500.00000 0 -4050113.516 -15063988.187 -20160219.453 10 0 60325 14400.00000 0 -3316691.248 -17338207.906 -18399456.741 10 0 60325 15300.00000 0 -2819924.597 -19430295.939 -16280906.970 10 0 60325 16200.00000 0 -2539434.785 -21279078.603 -13846039.362 10 0 60325 17100.00000 0 -2443981.903 -22830529.101 -11142393.026 10 0 60325 18000.00000 0 -2493026.432 -24039891.013 -8222635.363 10 0 60325 18900.00000 0 -2638683.517 -24873425.650 -5143527.446 10 0 60325 19800.00000 0 -2827985.314 -25309712.683 -1964817.272 10 0 60325 20700.00000 0 -3005354.650 -25340452.443 1251917.222 10 0 60325 21600.00000 0 -3115185.071 -24970739.195 4444453.047 10 0 60325 22500.00000 0 -3104418.799 -24218796.493 7551112.615 10 0 60325 23400.00000 0 -2925014.891 -23115188.088 10511937.803 10 0 60325 24300.00000 0 -2536205.094 -21701538.671 13269826.414 10 0 60325 25200.00000 0 -1906444.064 -20028818.475 15771610.890 10 0 60325 26100.00000 0 -1014973.485 -18155263.334 17969060.586 10 0 60325 27000.00000 0 147064.444 -16144015.721 19819790.433 10 0 60325 27900.00000 0 1576010.417 -14060583.337 21288060.585 10 0 60325 28800.00000 0 3255594.441 -11970218.782 22345453.502 10 0 60325 29700.00000 0 5157370.515 -9935326.639 22971416.819 10 0 60325 30600.00000 0 7241663.653 -8013003.222 23153662.392 10 0 60325 31500.00000 0 9458992.694 -6252809.042 22888414.047 10 0 60325 32400.00000 0 11751913.148 -4694864.851 22180498.648 10 0 60325 33300.00000 0 14057207.062 -3368349.471 21043277.479 10 0 60325 34200.00000 0 16308332.335 -2290461.787 19498417.318 10 0 60325 35100.00000 0 18438032.575 -1465890.753 17575503.198 10 0 60325 36000.00000 0 20381001.131 -886816.831 15311497.577 10 0 60325 36900.00000 0 22076489.459 -533446.524 12750053.601 10 0 60325 37800.00000 0 23470751.150 -375059.501 9940693.129 10 0 60325 38700.00000 0 24519218.507 -371526.088 6937863.239 10 0 60325 39600.00000 0 25188318.652 -475232.578 3799888.002 10 0 60325 40500.00000 0 25456850.440 -633333.771 587835.105 10 0 60325 41400.00000 0 25316861.394 -790237.334 -2635680.601 10 0 60325 42300.00000 0 24773984.852 -890213.718 -5807732.377 10 0 60325 43200.00000 0 23847220.524 -880018.989 -8866330.029 10 0 60325 44100.00000 0 22568165.776 -711416.687 -11751654.953 10 0 60325 45000.00000 0 20979728.938 -343488.528 -14407255.119 10 0 60325 45900.00000 0 19134378.737 255367.371 -16781174.046 10 0 60325 46800.00000 0 17092004.329 1105838.655 -18826989.220 10 0 60325 47700.00000 0 14917477.552 2216571.720 -20504737.515 10 0 60325 48600.00000 0 12678021.933 3583565.288 -21781707.924 10 0 60325 49500.00000 0 10440501.144 5190111.530 -22633085.149 10 0 60325 50400.00000 0 8268742.763 7007287.659 -23042431.156 10 0 60325 51300.00000 0 6221011.087 8994976.982 -23001995.637 10 0 60325 52200.00000 0 4347735.610 11103375.550 -22512850.282 10 0 60325 53100.00000 0 2689590.198 13274919.702 -21584845.595 10 0 60325 54000.00000 0 1276002.158 15446552.096 -20236392.925 10 0 60325 54900.00000 0 124151.516 17552229.785 -18494077.860 10 0 60325 55800.00000 0 -761500.563 19525568.066 -16392114.607 10 0 60325 56700.00000 0 -1389137.961 21302508.782 -13971653.971 10 0 60325 57600.00000 0 -1778977.432 22823901.376 -11279960.216 10 0 60325 58500.00000 0 -1962147.565 24037889.354 -8369474.436 10 0 60325 59400.00000 0 -1979109.593 24902003.656 -5296783.903 10 0 60325 60300.00000 0 -1877689.426 25384877.295 -2121518.231 10 0 60325 61200.00000 0 -1710805.933 25467511.858 1094805.763 10 0 60325 62100.00000 0 -1533992.447 25144045.438 4289968.194 10 0 60325 63000.00000 0 -1402816.276 24421992.360 7402236.874 10 0 60325 63900.00000 0 -1370304.466 23321946.907 10371542.703 10 0 60325 64800.00000 0 -1484483.091 21876764.998 13140618.429 10 0 60325 65700.00000 0 -1786132.084 20130258.928 15656080.643 10 0 60325 66600.00000 0 -2306848.368 18135459.565 17869436.163 10 0 60325 67500.00000 0 -3067497.202 15952517.625 19737995.555 10 0 60325 68400.00000 0 -4077115.732 13646329.924 21225678.401 10 0 60325 69300.00000 0 -5332314.431 11283986.949 22303696.553 10 0 60325 70200.00000 0 -6817202.124 8932145.209 22951103.711 10 0 60325 71100.00000 0 -8503839.274 6654430.728 23155201.626 10 0 60325 72000.00000 0 -10353203.046 4508978.779 22911795.287 10 0 60325 72900.00000 0 -12316627.008 2546209.871 22225291.678 10 0 60325 73800.00000 0 -14337658.965 806932.762 21108638.948 10 0 60325 74700.00000 0 -16354263.083 -679147.377 19583105.266 10 0 60325 75600.00000 0 -18301277.811 -1894453.529 17677899.229 10 0 60325 76500.00000 0 -20113029.763 -2834050.607 15429636.413 10 0 60325 77400.00000 0 -21725996.232 -3505625.581 12881659.604 10 0 60325 78300.00000 0 -23081405.747 -3928933.039 10083223.205 10 0 60325 79200.00000 0 -24127667.427 -4134727.671 7088555.421 10 0 60325 80100.00000 0 -24822525.772 -4163227.011 3955814.823 10 0 60325 81000.00000 0 -25134848.111 -4062168.221 745960.738 10 0 60325 81900.00000 0 -25045966.580 -3884540.740 -2478440.567 10 0 60325 82800.00000 0 -24550514.995 -3686091.309 -5654449.773 10 0 60325 83700.00000 0 -23656722.313 -3522708.554 -8720002.837 10 0 60325 84600.00000 0 -22386147.726 -3447800.310 -11615147.279 10 0 60325 85500.00000 0 -20772866.752 -3509777.766 -14283239.691 10 0 60326 0.00000 0 -18862141.883 -3749756.304 -16672078.315 10 0 60326 900.00000 0 -16708632.724 -4199573.872 -18734947.264 10 0 60326 1800.00000 0 -14374224.475 -4880213.345 -20431546.668 10 0 60326 2700.00000 0 -11925564.179 -5800698.439 -21728793.246 10 0 60326 3600.00000 0 -9431412.613 -6957511.131 -22601471.361 10 0 60326 4500.00000 0 -6959923.897 -8334556.061 -23032722.847 10 0 60326 5400.00000 0 -4575968.651 -9903673.310 -23014366.122 10 0 60326 6300.00000 0 -2338613.828 -11625677.199 -22547039.257 10 0 60326 7200.00000 0 -298864.974 -13451876.027 -21640165.595 10 0 60326 8100.00000 0 1502235.347 -15326007.258 -20311744.309 10 0 60326 9000.00000 0 3035075.122 -17186505.165 -18587971.937 10 0 60326 9900.00000 0 4282447.583 -18969004.231 -16502704.306 10 0 60326 10800.00000 0 5239995.560 -20608972.152 -14096771.324 10 0 60326 11700.00000 0 5916110.680 -22044361.507 -11417159.831 10 0 60326 12600.00000 0 6331295.618 -23218168.977 -8516081.998 10 0 60326 13500.00000 0 6517020.036 -24080795.656 -5449948.706 10 0 60326 14400.00000 0 6514121.728 -24592110.957 -2278268.660 10 0 60326 15300.00000 0 6370822.995 -24723135.532 937504.878 10 0 60326 16200.00000 0 6140447.586 -24457274.909 4135157.422 10 0 60326 17100.00000 0 5878935.399 -23791054.553 7252904.343 10 0 60326 18000.00000 0 5642259.578 -22734327.709 10230567.576 10 0 60326 18900.00000 0 5483854.018 -21309948.995 13010716.704 10 0 60326 19800.00000 0 5452158.170 -19552928.442 15539754.191 10 0 60326 20700.00000 0 5588380.677 -17509101.457 17768925.841 10 0 60326 21600.00000 0 5924574.123 -15233369.636 19655239.214 10 0 60326 22500.00000 0 6482100.273 -12787584.166 21162274.436 10 0 60326 23400.00000 0 7270549.258 -10238157.685 22260873.637 10 0 60326 24300.00000 0 8287157.883 -7653501.162 22929697.236 10 0 60326 25200.00000 0 9516752.238 -5101389.078 23155637.274 10 0 60326 26100.00000 0 10932218.736 -2646359.367 22934080.063 10 0 60326 27000.00000 0 12495486.464 -347253.343 22269012.635 10 0 60326 27900.00000 0 14158983.004 1745004.447 21172969.716 10 0 60326 28800.00000 0 15867506.355 3589295.506 19666820.370 10 0 60326 29700.00000 0 17560438.206 5155787.794 17779396.059 10 0 60326 30600.00000 0 19174209.057 6426945.301 15546964.566 10 0 60326 31500.00000 0 20644914.329 7398023.562 13012557.159 10 0 60326 32400.00000 0 21910973.200 8077028.902 10225159.385 10 0 60326 33300.00000 0 22915718.867 8484141.305 7238778.886 10 0 60326 34200.00000 0 23609810.477 8650623.431 4111406.754 10 0 60326 35100.00000 0 23953363.376 8617260.410 903891.705 10 0 60326 36000.00000 0 23917705.228 8432395.486 -2321251.071 10 0 60326 36900.00000 0 23486680.794 8149644.658 -5501072.338 10 0 60326 37800.00000 0 22657447.031 7825388.016 -8573436.962 10 0 60326 38700.00000 0 21440721.915 7516145.849 -11478261.337 10 0 60326 39600.00000 0 19860474.009 7275953.257 -14158713.356 10 0 60326 40500.00000 0 17953064.210 7153847.532 -16562348.910 10 0 60326 41400.00000 0 15765875.070 7191577.883 -18642160.217 10 0 60326 42300.00000 0 13355485.591 7421637.481 -20357513.261 10 0 60326 43200.00000 0 10785469.179 7865703.610 -21674954.409 10 0 60326 44100.00000 0 8123908.753 8533553.704 -22568869.375 10 0 60326 45000.00000 0 5440735.012 9422504.058 -23021981.278 10 0 60326 45900.00000 0 2805001.072 10517395.023 -23025678.348 10 0 60326 46800.00000 0 282208.829 11791122.686 -22580165.750 10 0 60326 47700.00000 0 -2068200.448 13205693.283 -21694439.920 10 0 60326 48600.00000 0 -4195086.634 14713754.249 -20386087.628 10 0 60326 49500.00000 0 -6057489.849 16260535.550 -18680915.625 10 0 60326 50400.00000 0 -7626071.701 17786117.815 -16612420.130 10 0 60326 51300.00000 0 -8884061.269 19227930.344 -14221108.496 10 0 60326 52200.00000 0 -9827669.841 20523372.996 -11553688.088 10 0 60326 53100.00000 0 -10465960.886 21612451.320 -8662139.807 10 0 60326 54000.00000 0 -10820184.723 22440314.516 -5602695.556 10 0 60326 54900.00000 0 -10922609.568 22959590.556 -2434740.396 10 0 60326 55800.00000 0 -10814901.221 23132421.876 780338.770 10 0 60326 56700.00000 0 -10546122.051 22932118.145 3980335.714 10 0 60326 57600.00000 0 -10170435.006 22344358.904 7103416.198 10 0 60326 58500.00000 0 -9744609.795 21367897.621 10089295.962 10 0 60326 59400.00000 0 -9325435.976 20014739.567 12880384.098 10 0 60326 60300.00000 0 -8967150.581 18309787.077 15422871.489 10 0 60326 61200.00000 0 -8718986.834 16289967.505 17667745.325 10 0 60326 62100.00000 0 -8622945.145 14002879.898 19571712.371 10 0 60326 63000.00000 0 -8711878.090 11505015.475 21098015.314 10 0 60326 63900.00000 0 -9007968.276 8859623.913 22217128.350 10 0 60326 64800.00000 0 -9521662.065 6134311.387 22907320.132 10 0 60326 65700.00000 0 -10251103.804 3398466.928 23155074.183 10 0 60326 66600.00000 0 -11182095.221 720620.728 22955358.966 10 0 60326 67500.00000 0 -12288583.509 -1834159.122 22311741.973 10 0 60326 68400.00000 0 -13533660.272 -4206726.054 21236344.453 10 0 60326 69300.00000 0 -14871032.698 -6346070.369 19749635.824 10 0 60326 70200.00000 0 -16246908.666 -8211199.523 17880069.367 10 0 60326 71100.00000 0 -17602220.026 -9772605.303 15663563.528 10 0 60326 72000.00000 0 -18875093.477 -11013256.027 13142836.070 10 0 60326 72900.00000 0 -20003467.178 -11929071.014 10366601.275 10 0 60326 73800.00000 0 -20927743.953 -12528855.751 7388643.499 10 0 60326 74700.00000 0 -21593369.097 -12833698.584 4266783.370 10 0 60326 75600.00000 0 -21953222.769 -12875852.683 1061755.822 10 0 60326 76500.00000 0 -21969723.706 -12697149.258 -2163978.314 10 0 60326 77400.00000 0 -21616552.404 -12347008.540 -5347463.230 10 0 60326 78300.00000 0 -20879917.601 -11880133.098 -8426496.074 10 0 60326 79200.00000 0 -19759309.223 -11353982.372 -11340865.439 10 0 60326 80100.00000 0 -18267702.977 -10826137.460 -14033553.744 10 0 60326 81000.00000 0 -16431205.666 -10351670.444 -16451877.382 10 0 60326 81900.00000 0 -14288154.682 -9980632.595 -18548539.864 10 0 60326 82800.00000 0 -11887709.076 -9755770.756 -20282575.160 10 0 60326 83700.00000 0 -9287991.805 -9710571.088 -21620161.135 10 0 60326 84600.00000 0 -6553862.177 -9867714.927 -22535286.101 10 0 60326 85500.00000 0 -3754413.456 -10238013.148 -23010255.064 99